Temp
59 58 58 58 58 58 58 57 57 57 57 56 56 56 56 57 57 56 56 56 56 56 56 57 57 58 61 67 71 78 72 75 82 80 77 77 74 75 70 76 79 75 80 85 87 88 88
58 58 57 57 57 57 57 57 57 56 56 56 56 56 56 56 56 56 55 55 55 55 56 56 57 57 62 59 82 84 81 80 80 79 76 75 76 78 73 73 75 80 82 83 86 86 87
58 58 57 57 57 57 57 56 56 56 56 56 56 55 55 55 55 55 55 55 55 55 56 57 57 61 61 63 80 81 79 78 79 77 73 77 77 73 75 69 80 80 74 79 82 83 82
57 57 57 57 57 57 56 56 56 56 55 55 55 55 55 55 54 54 54 54 55 55 57 57 57 64 59 78 80 80 79 77 81 82 78 79 79 71 68 75 72 68 73 66 78 81 82
57 57 57 56 56 56 56 56 55 55 55 55 55 55 54 54 54 54 54 54 55 57 59 59 59 63 62 73 73 77 78 72 76 76 78 81 76 68 68 62 60 65 59 64 69 81 80
57 56 56 56 56 56 56 56 55 55 55 55 55 55 54 54 54 54 53 54 60 59 64 68 70 60 68 63 71 74 78 75 71 71 69 70 68 61 62 59 50 56 61 65 66 76 77
56 56 56 56 56 56 56 55 55 54 54 54 54 54 54 54 54 53 55 69 62 59 63 57 59 60 65 72 76 72 76 71 70 66 57 65 57 53 59 63 63 64 64 64 71 78 75
55 55 55 56 55 55 55 55 54 54 54 54 54 54 54 54 54 54 61 58 57 55 48 64 65 65 69 70 62 68 76 63 61 55 62 59 53 62 66 66 64 62 59 60 69 76 75
55 55 55 55 55 55 55 55 54 54 54 54 53 53 53 53 53 57 62 60 68 64 50 59 64 63 64 69 62 64 69 64 57 53 55 53 59 66 64 62 60 62 60 61 61 69 73
54 54 54 54 55 54 54 54 54 53 53 53 53 53 53 53 51 62 60 66 66 62 44 55 60 63 68 69 61 72 72 64 57 51 55 55 63 62 61 60 62 56 67 66 64 60 53
54 54 54 54 54 54 54 53 53 53 53 53 53 53 52 53 52 58 61 65 64 57 33 58 60 73 69 64 63 63 72 65 53 54 53 50 55 56 57 60 65 59 68 66 65 60 57
54 53 54 53 53 53 53 53 53 53 53 53 53 53 53 59 59 61 64 62 58 39 30 52 61 58 58 62 63 64 63 68 62 55 56 54 62 59 57 61 66 68 65 64 63 60 47
54 53 53 53 53 53 53 53 53 53 53 53 53 52 53 59 54 61 60 56 39 32 55 51 51 56 55 55 58 60 57 55 44 35 42 53 54 61 63 57 64 64 57 46 45 44 43
53 53 53 53 53 52 52 53 53 52 52 52 52 52 54 61 60 58 57 49 32 44 48 56 53 54 50 56 56 56 53 50 52 48 44 41 41 56 63 57 52 58 57 46 36 41 47
53 53 52 52 53 52 52 52 52 52 52 52 52 59 59 58 59 58 51 32 34 46 51 48 51 48 49 54 53 52 51 49 53 52 41 39 42 55 61 64 60 50 49 62 50 53 47
53 52 52 52 52 52 52 52 52 52 52 52 54 59 54 57 59 54 46 33 44 53 53 51 41 47 42 47 47 49 49 50 48 51 54 48 37 52 58 61 65 60 63 48 50 38 36
53 52 52 52 52 51 51 52 52 52 52 53 52 53 55 59 56 52 33 37 48 55 54 47 45 43 45 44 47 45 47 52 49 49 52 48 44 44 52 51 52 53 54 54 53 47 39
52 52 52 52 52 51 51 51 51 51 52 50 55 37 56 59 43 39 33 46 47 51 55 51 51 48 45 46 43 43 44 50 53 53 45 45 41 37 44 56 59 55 50 43 38 42 48
52 52 51 51 52 51 51 51 51 51 52 54 46 46 57 54 32 32 43 46 49 49 50 48 46 49 50 44 39 45 47 55 55 50 44 47 40 32 39 50 51 44 49 48 44 44 40
51 51 51 51 51 51 51 51 51 51 52 51 47 33 45 49 43 39 39 40 44 51 49 50 48 50 46 44 48 41 44 50 53 52 50 49 42 37 31 38 39 35 42 47 46 34 34
51 51 51 51 51 51 51 51 51 51 51 51 45 38 49 33 33 39 43 42 41 42 50 50 45 46 44 37 40 39 45 45 50 51 51 48 34 40 42 45 45 43 43 44 43 45 38
50 50 51 50 51 51 51 50 50 51 51 49 37 41 49 45 48 44 41 34 41 45 46 42 42 45 46 39 41 37 42 42 40 46 45 47 34 39 34 42 45 42 46 48 48 49 49
50 50 50 50 50 51 51 50 50 51 50 51 56 54 49 44 45 42 40 42 45 48 47 48 46 43 41 44 48 48 48 46 44 40 39 39 37 34 28 40 40 32 42 47 48 51 50
50 50 50 50 50 51 50 50 50 50 50 53 54 54 42 35 44 44 47 48 46 47 43 48 48 43 49 54 51 49 47 46 46 45 46 38 36 36 28 34 21 42 54 54 50 52 55
50 50 50 50 50 50 50 50 50 50 50 51 55 51 43 33 44 46 47 47 48 49 46 47 50 53 53 48 37 33 35 40 45 48 47 47 40 32 26 28 36 42 48 48 46 44 51
49 50 50 50 50 49 50 49 49 50 50 50 53 55 48 35 38 48 45 47 42 42 44 46 52 54 50 41 33 26 27 34 35 42 53 51 46 35 32 25 23 42 53 56 53 36 49
49 49 50 50 50 49 49 49 49 49 50 50 49 53 47 36 45 46 41 42 49 45 41 44 46 45 49 36 29 28 30 41 32 34 37 39 40 32 32 28 35 48 50 53 34 35 50
48 49 49 49 49 49 49 49 49 49 49 49 49 53 47 39 45 48 50 45 46 46 37 44 39 42 39 31 31 33 31 37 35 40 38 35 33 32 35 29 26 49 45 35 43 49 51
48 48 48 48 48 49 48 48 48 49 49 49 44 51 51 40 43 51 50 52 51 51 44 43 40 43 43 35 36 35 31 33 33 27 43 32 40 35 36 35 48 52 45 47 50 45 49
MSLP
1025.41 1025.37 1025.30 1025.19 1025.01 1024.80 1024.62 1024.50 1024.36 1024.19 1024.01 1023.74 1023.45 1023.16 1022.83 1022.44 1021.96 1021.59 1021.03 1020.74 1020.34 1020.03 1019.62 1019.25 1018.66 1017.93 1016.54 1014.18 1012.24 1012.31 1012.51 1012.30 1011.86 1011.44 1010.82 1009.99 1009.18 1008.48 1007.31 1006.11 1005.55 1004.46 1003.47 1002.70 1001.83 1001.16 1000.80
1025.56 1025.48 1025.39 1025.27 1025.09 1024.91 1024.72 1024.57 1024.41 1024.25 1024.05 1023.79 1023.50 1023.17 1022.73 1022.22 1021.81 1021.36 1020.81 1020.31 1019.89 1019.56 1019.04 1019.03 1018.63 1018.27 1016.56 1013.96 1011.96 1012.12 1012.38 1012.28 1011.85 1011.33 1010.82 1010.66 1009.34 1008.83 1007.54 1006.52 1005.25 1004.22 1003.13 1002.42 1001.61 1001.03 1000.91
1025.59 1025.50 1025.39 1025.30 1025.15 1025.00 1024.85 1024.77 1024.59 1024.38 1024.15 1023.91 1023.61 1023.29 1022.85 1022.36 1021.86 1021.31 1020.70 1020.09 1019.50 1018.90 1018.54 1018.25 1018.28 1017.85 1015.86 1013.58 1012.73 1012.63 1012.49 1012.22 1011.99 1011.66 1011.06 1010.64 1010.29 1009.52 1008.13 1007.19 1005.69 1004.43 1003.50 1002.31 1001.29 1001.19 1000.98
1025.59 1025.54 1025.45 1025.34 1025.20 1025.06 1024.97 1024.90 1024.77 1024.57 1024.33 1024.06 1023.75 1023.40 1022.94 1022.45 1021.83 1021.03 1020.12 1019.43 1018.97 1018.42 1018.06 1017.87 1017.87 1017.01 1014.53 1013.25 1013.13 1012.41 1012.49 1012.04 1011.24 1010.92 1010.91 1010.88 1010.65 1010.16 1009.32 1008.02 1006.51 1005.50 1003.61 1002.21 1001.04 1001.14 1000.90
1025.60 1025.54 1025.46 1025.38 1025.28 1025.16 1025.04 1024.97 1024.84 1024.64 1024.40 1024.11 1023.75 1023.38 1022.91 1022.31 1021.44 1020.46 1019.52 1018.62 1018.45 1017.86 1017.95 1017.84 1017.59 1016.10 1013.44 1013.22 1012.97 1012.93 1012.68 1012.12 1011.41 1011.26 1010.41 1010.17 1010.37 1010.05 1009.58 1008.40 1007.16 1005.37 1003.31 1001.72 1000.94 1000.59 1000.40
1025.66 1025.60 1025.49 1025.40 1025.31 1025.24 1025.15 1025.06 1024.95 1024.71 1024.41 1024.15 1023.77 1023.28 1022.73 1022.06 1021.16 1020.17 1019.16 1017.30 1017.29 1017.48 1016.66 1016.59 1015.69 1015.28 1013.95 1013.59 1013.25 1012.93 1012.39 1012.02 1011.23 1010.78 1010.40 1009.97 1009.87 1009.36 1008.67 1008.02 1005.36 1004.48 1003.17 1002.07 1000.14 1000.04 1000.05
1025.76 1025.67 1025.55 1025.45 1025.34 1025.30 1025.24 1025.18 1025.03 1024.77 1024.51 1024.18 1023.76 1023.26 1022.73 1022.15 1021.25 1020.10 1019.06 1016.03 1017.05 1016.93 1016.45 1016.14 1015.70 1015.05 1014.15 1013.81 1013.30 1012.33 1011.89 1011.79 1011.59 1011.10 1010.12 1009.46 1009.07 1007.83 1007.00 1006.60 1005.98 1004.44 1003.21 1001.39 999.91 999.85 999.17
1025.91 1025.81 1025.67 1025.52 1025.43 1025.39 1025.32 1025.19 1025.01 1024.75 1024.47 1024.16 1023.77 1023.34 1022.83 1022.28 1021.56 1020.47 1019.24 1018.35 1019.13 1019.94 1017.99 1015.76 1015.18 1014.60 1014.10 1013.97 1012.78 1012.29 1011.80 1011.82 1011.56 1010.65 1009.86 1009.05 1007.43 1007.19 1007.06 1006.18 1005.39 1004.41 1003.48 1001.49 1000.65 999.65 998.84
1025.87 1025.80 1025.73 1025.61 1025.49 1025.41 1025.30 1025.15 1024.96 1024.75 1024.51 1024.24 1023.89 1023.48 1022.97 1022.40 1021.54 1020.47 1019.41 1019.46 1019.31 1019.48 1018.03 1015.38 1014.64 1014.19 1013.84 1013.24 1012.37 1011.79 1011.84 1011.80 1011.70 1011.01 1010.12 1008.48 1007.18 1006.69 1006.10 1005.52 1004.74 1003.47 1002.50 1001.97 1001.43 1000.95 999.47
1025.85 1025.82 1025.73 1025.57 1025.41 1025.33 1025.25 1025.11 1024.96 1024.79 1024.62 1024.35 1024.01 1023.62 1023.09 1022.38 1022.11 1020.14 1019.50 1019.66 1019.77 1019.85 1017.59 1014.88 1013.61 1013.47 1013.12 1012.21 1011.66 1011.62 1011.68 1012.05 1011.84 1011.32 1010.46 1008.82 1007.48 1006.26 1005.23 1004.34 1004.35 1002.63 1002.53 1002.28 1001.75 1001.74 1000.33
1025.80 1025.82 1025.68 1025.53 1025.41 1025.28 1025.15 1025.05 1024.99 1024.84 1024.69 1024.45 1024.14 1023.77 1023.27 1022.91 1022.35 1020.17 1020.28 1020.02 1019.83 1019.68 1017.22 1014.58 1013.30 1013.12 1012.45 1011.65 1011.68 1011.91 1011.92 1011.53 1011.57 1011.14 1011.27 1008.90 1007.80 1006.51 1004.99 1004.00 1003.51 1002.24 1002.86 1002.03 1001.55 1001.59 1001.33
1025.71 1025.76 1025.57 1025.48 1025.41 1025.29 1025.14 1025.05 1025.01 1024.86 1024.71 1024.48 1024.17 1023.83 1023.34 1021.46 1021.27 1020.91 1020.45 1020.25 1019.74 1018.93 1016.73 1014.44 1013.39 1012.96 1012.51 1011.84 1011.20 1011.43 1011.52 1011.23 1011.99 1011.42 1010.56 1009.51 1008.49 1007.32 1006.02 1004.54 1003.08 1002.68 1002.24 1001.99 1001.52 1001.27 1000.97
1025.55 1025.61 1025.53 1025.50 1025.43 1025.35 1025.22 1025.08 1024.94 1024.83 1024.70 1024.44 1024.07 1023.70 1023.31 1022.40 1021.43 1021.23 1020.71 1019.72 1019.09 1017.90 1016.36 1014.73 1014.12 1013.73 1013.26 1012.18 1011.44 1011.13 1011.04 1011.02 1012.47 1012.68 1010.61 1008.77 1007.57 1006.63 1006.04 1004.79 1003.08 1002.47 1002.21 1001.36 1001.15 1000.66 1000.08
1025.49 1025.47 1025.44 1025.37 1025.36 1025.30 1025.14 1024.99 1024.89 1024.81 1024.67 1024.30 1023.93 1023.50 1022.68 1021.88 1022.11 1021.81 1020.59 1019.17 1018.63 1017.82 1016.44 1015.86 1015.19 1014.24 1013.22 1012.36 1011.94 1011.73 1011.78 1011.46 1012.28 1012.65 1011.35 1009.16 1007.14 1005.94 1005.13 1005.22 1004.41 1002.42 1002.07 1001.44 1000.65 1000.43 1000.17
1025.21 1025.25 1025.34 1025.28 1025.14 1025.21 1025.13 1024.89 1024.81 1024.73 1024.54 1024.08 1023.54 1022.26 1021.78 1022.17 1022.13 1021.64 1020.58 1019.61 1019.00 1017.81 1017.37 1016.72 1015.66 1014.43 1013.59 1013.17 1012.95 1012.76 1012.36 1012.28 1012.55 1012.83 1012.61 1010.79 1008.50 1007.15 1005.32 1004.26 1004.29 1003.66 1002.20 1002.06 1001.59 1001.35 1000.37
1024.85 1025.08 1025.09 1025.15 1025.21 1025.14 1025.06 1024.98 1024.74 1024.61 1024.34 1024.05 1022.98 1021.47 1022.13 1022.64 1022.11 1021.37 1020.39 1020.30 1019.00 1018.32 1017.86 1017.35 1016.57 1015.86 1015.12 1014.53 1014.06 1013.32 1012.79 1013.54 1013.73 1013.88 1013.37 1012.12 1010.44 1008.26 1006.02 1004.90 1002.40 1002.80 1003.06 1002.83 1002.61 1001.87 1001.24
1024.49 1024.64 1024.84 1024.94 1025.02 1025.08 1025.02 1024.84 1024.71 1024.46 1024.12 1023.92 1023.03 1021.18 1022.46 1022.50 1022.27 1021.05 1021.05 1020.48 1019.21 1018.46 1018.36 1017.94 1017.36 1017.08 1016.56 1015.79 1015.29 1014.78 1014.02 1013.92 1014.99 1014.65 1014.04 1013.53 1012.35 1009.49 1008.16 1006.28 1004.78 1004.11 1003.69 1003.69 1003.72 1003.82 1002.72
1024.10 1024.27 1024.46 1024.67 1024.78 1024.93 1024.92 1024.88 1024.64 1024.33 1023.94 1023.65 1021.88 1022.06 1022.56 1022.25 1022.02 1022.33 1021.86 1020.53 1020.18 1018.80 1018.47 1018.15 1017.70 1017.41 1017.10 1016.82 1016.44 1015.78 1015.04 1014.46 1015.43 1014.78 1014.34 1014.94 1013.97 1011.37 1009.11 1007.00 1006.40 1006.74 1006.26 1007.58 1006.70 1004.20 1003.67
1023.64 1023.95 1024.13 1024.35 1024.40 1024.60 1024.71 1024.71 1024.62 1024.28 1024.10 1023.01 1022.21 1022.38 1022.51 1022.39 1022.51 1022.71 1021.81 1020.67 1019.93 1019.23 1018.64 1018.43 1018.23 1018.07 1017.86 1017.74 1017.16 1016.07 1015.67 1014.93 1014.97 1015.34 1015.66 1015.55 1014.35 1012.60 1009.85 1007.75 1007.60 1008.08 1007.94 1008.26 1008.37 1007.69 1005.57
1023.20 1023.50 1023.72 1023.90 1024.03 1024.23 1024.44 1024.56 1024.50 1024.22 1024.12 1023.99 1022.62 1022.93 1022.52 1022.39 1023.06 1022.63 1021.81 1021.06 1019.83 1019.42 1019.11 1018.82 1018.61 1018.51 1018.23 1017.71 1017.56 1017.05 1016.37 1016.02 1015.77 1015.73 1015.91 1015.96 1015.02 1014.18 1012.61 1011.21 1011.36 1010.76 1008.41 1008.79 1008.16 1007.88 1007.42
1022.77 1022.99 1023.25 1023.46 1023.66 1023.86 1024.07 1024.30 1024.38 1024.13 1024.03 1024.01 1023.05 1022.60 1021.63 1022.58 1022.71 1022.36 1021.74 1021.28 1020.31 1019.54 1019.26 1019.20 1018.86 1018.76 1018.62 1018.31 1018.04 1017.54 1016.90 1016.57 1016.17 1015.77 1015.49 1015.52 1015.02 1014.53 1013.38 1012.19 1011.40 1010.81 1010.04 1008.77 1008.10 1007.32 1006.61
1022.18 1022.49 1022.80 1023.03 1023.20 1023.49 1023.75 1023.92 1024.06 1024.12 1024.04 1023.61 1022.60 1022.26 1021.72 1021.61 1021.19 1021.42 1021.48 1021.32 1020.28 1019.49 1019.44 1019.43 1019.30 1019.11 1018.97 1018.78 1018.61 1017.90 1017.54 1017.29 1016.72 1016.21 1015.89 1015.77 1015.21 1014.79 1013.50 1012.97 1011.52 1010.11 1009.45 1008.42 1007.41 1006.46 1005.53
1021.57 1021.94 1022.27 1022.60 1022.73 1023.07 1023.38 1023.65 1023.67 1023.83 1024.07 1022.49 1021.39 1021.80 1021.72 1021.50 1020.94 1020.91 1020.76 1020.24 1019.60 1019.53 1019.72 1019.71 1019.56 1019.40 1019.21 1019.01 1018.77 1018.48 1018.12 1017.58 1017.08 1016.79 1016.37 1016.28 1015.99 1015.35 1013.30 1013.46 1011.94 1009.75 1009.11 1008.01 1007.31 1006.60 1005.79
1021.01 1021.39 1021.72 1022.03 1022.37 1022.61 1022.88 1023.16 1023.43 1023.52 1023.57 1022.75 1021.93 1021.26 1021.67 1021.54 1020.53 1020.13 1019.75 1019.62 1019.41 1019.38 1019.38 1019.37 1019.57 1019.44 1019.07 1019.09 1019.02 1018.42 1017.39 1016.27 1015.73 1015.27 1015.61 1015.52 1015.76 1015.54 1014.38 1013.95 1011.82 1009.20 1008.12 1007.27 1006.63 1006.10 1005.50
1020.38 1020.78 1021.14 1021.48 1021.79 1022.12 1022.44 1022.73 1023.01 1023.22 1023.42 1023.15 1022.04 1021.72 1021.85 1021.76 1020.78 1019.88 1019.37 1019.16 1019.09 1019.09 1019.07 1018.87 1018.78 1018.95 1019.37 1019.61 1019.14 1018.11 1016.44 1014.77 1013.66 1012.99 1013.22 1013.75 1014.46 1014.46 1014.25 1013.02 1010.94 1009.36 1008.20 1007.25 1006.99 1006.84 1007.08
1019.72 1020.18 1020.55 1020.90 1021.29 1021.67 1021.97 1022.36 1022.67 1022.97 1023.17 1023.14 1022.37 1022.25 1022.13 1022.17 1020.30 1019.87 1019.53 1019.31 1019.13 1019.01 1018.92 1018.98 1019.18 1019.54 1019.71 1019.81 1019.75 1018.87 1016.99 1015.46 1013.90 1012.60 1011.80 1011.76 1012.85 1013.67 1013.52 1012.53 1010.76 1008.62 1007.64 1007.42 1007.53 1007.55 1007.94
1019.05 1019.57 1019.98 1020.31 1020.78 1021.21 1021.58 1021.95 1022.31 1022.65 1022.98 1022.96 1022.58 1022.36 1022.44 1022.21 1020.57 1020.19 1019.81 1019.45 1019.20 1019.31 1019.39 1019.36 1019.24 1019.40 1019.62 1020.03 1019.80 1018.87 1017.31 1015.91 1014.47 1013.27 1012.38 1012.10 1012.10 1012.61 1012.41 1011.88 1010.38 1009.32 1009.00 1008.51 1008.38 1009.46 1008.57
1018.37 1018.91 1019.38 1019.77 1020.20 1020.69 1021.14 1021.55 1021.94 1022.32 1022.71 1022.98 1022.49 1022.52 1022.45 1022.23 1020.72 1020.15 1019.91 1019.85 1019.62 1019.61 1019.78 1019.90 1020.15 1019.42 1019.63 1019.98 1019.62 1018.63 1017.63 1016.33 1015.28 1014.13 1013.62 1013.20 1012.62 1012.15 1011.68 1011.14 1009.87 1009.88 1010.20 1010.86 1010.39 1009.12 1008.80
1017.75 1018.23 1018.74 1019.18 1019.65 1020.16 1020.65 1021.13 1021.55 1021.88 1022.33 1022.86 1022.50 1022.35 1022.71 1022.76 1021.17 1020.12 1020.32 1020.05 1019.69 1019.64 1019.96 1020.22 1020.08 1019.38 1019.36 1019.60 1019.50 1019.44 1018.57 1017.91 1016.58 1015.05 1014.69 1013.65 1012.94 1012.36 1012.27 1010.72 1009.69 1009.24 1010.37 1010.47 1009.99 1010.40 1009.27
Wind_Speed
7 7 7 7 8 8 9 9 9 10 11 12 12 13 14 15 16 17 18 18 18 18 17 17 18 20 14 4 4 7 6 3 10 11 13 13 13 14 20 17 19 24 22 22 21 23 19
4 5 5 6 8 8 9 9 10 11 12 13 14 14 16 17 18 19 21 21 20 20 18 16 13 16 8 6 7 13 15 14 14 13 11 14 13 15 16 20 22 22 23 23 22 21 19
1 4 5 6 8 8 8 8 10 11 12 13 14 15 15 17 20 21 22 22 21 21 18 14 9 8 7 12 15 13 13 13 13 14 14 12 13 16 13 17 19 24 24 24 21 19 23
3 4 5 6 7 8 7 7 9 10 12 13 13 14 16 17 19 22 23 22 20 19 14 9 6 9 7 6 7 12 14 16 16 12 16 16 15 15 15 15 21 20 22 23 24 22 18
2 3 4 6 6 7 8 8 9 11 12 12 13 14 16 17 20 23 23 24 18 17 9 8 7 7 2 3 13 18 17 18 14 16 15 14 15 18 15 16 15 17 19 25 27 25 22
2 2 3 4 6 6 8 8 10 11 12 13 15 15 18 19 22 24 25 29 8 8 12 11 6 7 3 13 17 17 12 15 16 15 15 16 11 18 17 17 19 22 25 26 26 22 25
2 2 3 4 5 6 7 8 10 11 12 13 15 16 19 20 23 26 18 6 2 6 9 6 7 6 10 13 13 12 14 11 14 15 18 17 17 21 25 24 28 22 23 28 26 24 24
3 3 3 4 3 5 5 8 10 12 13 14 16 18 19 20 22 24 12 9 9 3 7 5 4 5 6 8 13 13 12 11 16 18 19 20 22 26 25 27 28 28 28 28 24 25 22
3 3 4 4 4 4 5 7 9 12 13 14 15 17 19 21 23 13 8 11 7 8 6 0 1 2 7 8 15 11 16 16 17 22 21 23 24 25 28 27 30 28 28 23 24 23 27
2 3 4 4 4 4 5 6 8 10 13 13 14 16 17 22 11 9 6 10 7 5 5 5 0 5 9 10 7 20 11 10 14 21 22 23 24 26 27 32 28 28 26 26 26 19 17
4 5 5 6 3 4 5 5 7 9 11 12 14 15 18 14 9 7 10 10 7 3 3 6 3 3 12 17 7 14 12 14 19 18 19 22 23 26 27 29 28 27 25 26 26 21 19
5 7 4 3 4 4 5 4 7 9 11 12 13 15 17 3 8 11 10 10 6 3 4 6 4 13 13 18 8 4 11 6 12 22 20 24 27 25 18 29 28 28 26 28 26 15 17
6 5 2 3 2 4 5 6 7 9 10 12 14 16 13 8 7 13 11 6 1 5 7 7 12 14 15 18 13 13 19 14 6 7 15 20 23 25 22 25 26 22 20 15 20 15 16
6 6 6 5 5 3 3 8 7 8 10 13 14 16 2 4 9 10 9 1 5 3 6 13 13 17 13 12 13 17 18 14 7 10 16 18 16 18 15 16 21 19 21 16 21 16 17
9 7 5 3 4 3 5 6 6 7 11 14 17 5 0 7 7 6 6 4 3 5 10 11 15 9 10 14 18 18 18 7 11 14 14 16 17 30 22 17 18 16 21 20 23 19 16
10 9 7 5 5 5 6 7 6 10 11 12 7 4 6 7 6 7 2 2 2 4 7 8 9 6 17 18 17 16 15 9 11 12 13 13 18 16 22 31 15 26 19 15 12 22 23
11 11 9 7 5 5 5 5 7 11 13 10 6 2 5 4 6 2 3 3 5 4 7 6 10 14 15 16 16 17 16 4 13 14 7 12 8 18 18 16 14 13 15 19 17 11 15
13 12 9 9 7 6 5 5 6 11 12 7 4 2 4 5 2 3 0 5 4 5 6 8 8 11 11 12 15 17 18 11 12 15 12 7 7 11 23 24 21 16 14 10 8 19 15
13 13 12 11 9 7 5 5 6 9 10 8 2 1 3 5 2 1 6 7 6 9 8 4 7 10 11 13 11 11 19 17 14 15 11 10 5 12 15 10 19 8 18 15 9 16 18
15 14 12 12 10 8 5 5 5 8 8 5 3 0 2 3 3 2 4 6 3 2 8 6 8 11 12 13 10 11 19 13 19 16 10 7 11 13 13 17 3 12 28 20 18 4 6
16 15 14 13 11 10 7 6 5 7 5 5 2 3 1 2 3 5 3 5 7 6 4 6 4 7 11 9 16 17 15 23 19 18 13 6 10 14 19 21 20 17 16 21 18 18 14
16 15 14 13 13 11 9 8 6 6 5 5 4 3 3 4 5 7 4 3 7 8 4 6 11 14 13 14 14 20 21 17 12 15 13 11 11 15 21 21 22 20 19 20 20 22 21
16 16 15 15 12 13 11 10 9 7 6 4 2 3 3 4 4 6 7 8 7 6 4 8 8 11 14 16 16 17 18 19 20 21 20 18 14 13 20 18 22 18 13 17 19 21 21
17 17 17 16 14 13 13 11 11 9 9 5 5 4 4 4 7 8 8 9 10 10 12 13 12 13 12 14 17 18 22 23 23 22 18 19 17 12 15 16 14 10 15 18 19 21 20
18 18 18 17 16 15 13 13 12 9 6 7 4 3 3 4 7 10 11 11 10 10 11 13 11 7 9 11 9 10 9 9 10 21 20 19 16 8 7 11 19 23 21 22 17 15 16
18 18 18 17 16 16 14 14 13 11 8 6 4 4 2 1 6 10 7 7 8 8 8 6 3 7 4 7 3 4 5 14 6 10 5 10 15 9 8 6 9 8 14 16 12 14 13
18 17 17 17 16 16 15 15 14 13 11 6 3 5 3 3 7 9 6 6 4 5 6 7 5 2 3 2 4 6 9 14 7 10 12 8 6 11 11 10 9 10 17 14 10 9 20
19 18 17 16 16 17 16 15 14 15 13 8 6 5 5 3 9 13 12 11 8 7 7 5 7 3 4 3 4 4 4 5 8 12 13 15 11 10 9 8 8 10 14 7 13 15 19
19 18 17 15 15 16 17 16 16 15 15 12 6 4 4 4 7 14 13 15 13 13 9 5 8 7 3 4 2 4 5 7 14 14 13 11 12 13 9 9 21 16 8 14 15 12 13
Wind_Direction
61 59 55 45 37 29 34 32 29 22 14 8 3 358 352 346 341 336 333 328 325 319 314 313 318 320 322 269 310 133 221 281 305 299 311 304 296 273 262 263 247 254 261 255 262 267 281
76 69 56 42 34 25 24 28 21 14 8 3 359 356 351 345 338 333 327 323 318 314 311 304 306 311 269 262 37 360 334 320 311 297 274 295 288 283 300 288 264 260 260 258 257 257 262
66 61 55 38 26 21 30 27 18 11 6 359 357 353 348 339 333 327 319 313 311 313 309 304 292 273 267 267 338 339 316 300 292 288 287 282 292 307 292 302 272 268 269 268 255 255 247
71 59 55 33 24 15 28 21 11 3 359 356 354 351 342 334 327 320 313 308 309 306 307 286 285 266 286 355 331 351 338 327 311 276 259 269 279 285 287 279 285 286 252 250 243 237 245
79 57 42 31 21 21 19 18 9 357 353 352 349 346 341 335 328 322 315 305 300 290 278 259 232 240 341 202 337 332 324 311 307 294 281 253 248 253 265 265 257 254 252 238 244 240 238
70 40 28 25 12 18 11 16 3 356 352 357 350 343 342 341 331 324 321 298 272 285 221 235 261 251 12 341 333 314 303 295 301 292 279 251 239 238 237 238 231 235 240 243 255 228 238
342 13 17 9 9 10 7 13 4 359 357 353 357 351 344 339 331 326 329 332 341 168 10 4 337 308 320 340 324 330 349 320 286 278 265 252 229 233 229 231 246 258 257 253 249 243 256
355 347 340 341 353 357 356 3 4 360 357 351 349 347 345 338 329 323 321 42 48 37 317 262 239 245 325 332 335 345 330 321 301 278 266 247 248 238 245 249 244 238 254 262 273 273 266
313 302 301 310 312 327 342 355 0 360 355 351 346 344 338 330 323 300 43 26 11 348 272 247 132 298 333 305 320 311 356 341 308 280 274 264 257 244 241 244 248 249 244 247 261 279 282
267 292 289 295 296 321 330 341 350 353 351 343 340 340 334 325 295 316 56 358 357 325 251 89 164 90 321 289 309 14 349 322 313 292 276 271 271 255 255 241 241 250 246 249 254 255 263
257 273 286 277 281 300 319 325 336 339 343 336 333 333 327 325 310 355 344 342 325 256 99 1 8 329 304 320 356 15 336 313 307 298 281 274 266 263 255 253 247 246 258 257 244 244 264
253 281 255 286 302 309 324 328 330 334 335 327 324 323 327 313 232 360 338 313 269 254 45 338 333 340 331 325 343 338 337 322 342 299 279 262 273 278 303 292 252 259 246 245 259 238 238
236 253 234 267 304 312 310 317 325 331 329 321 317 316 312 307 351 343 313 268 275 50 308 10 341 333 322 306 326 344 339 347 41 333 298 286 257 261 253 271 277 247 251 251 228 225 238
238 244 253 249 272 298 315 318 312 326 323 316 313 311 219 25 350 319 293 276 64 287 350 345 331 306 286 296 328 348 334 332 52 343 314 308 306 244 250 259 278 248 241 245 250 231 229
229 240 255 234 256 270 318 338 330 327 323 317 307 232 51 17 328 298 281 55 150 341 359 333 322 333 352 334 347 330 318 347 352 13 342 314 315 320 297 274 207 273 271 256 261 268 269
222 227 239 244 263 275 293 312 321 328 322 323 302 247 61 350 329 281 18 49 278 339 337 330 314 317 330 330 324 329 323 33 351 355 338 336 309 308 311 329 268 230 262 245 264 249 251
233 222 235 240 241 262 276 291 319 321 316 326 260 240 59 333 291 302 104 249 300 4 325 332 330 317 314 319 329 324 313 32 10 340 311 347 316 310 314 297 288 301 229 258 274 267 264
231 222 220 225 232 251 269 280 310 323 327 299 267 51 53 310 55 15 201 338 338 290 320 288 277 282 299 331 313 305 294 330 19 342 354 17 304 303 308 293 282 284 271 272 291 270 244
218 217 215 223 226 238 251 266 304 321 329 310 51 341 107 271 99 18 290 283 291 293 299 310 301 304 308 306 304 308 304 316 358 348 8 340 293 317 310 318 9 8 330 339 274 295 279
220 215 220 219 221 227 228 239 285 305 318 288 148 98 339 30 147 284 312 303 296 173 292 285 283 300 290 287 316 290 308 307 322 319 319 299 270 261 272 295 210 304 314 313 307 210 286
216 213 213 215 217 217 211 226 256 287 301 279 75 237 126 171 248 241 286 295 300 295 224 295 292 301 310 311 302 293 301 311 304 301 289 267 274 281 285 296 301 295 269 282 292 294 292
216 216 216 217 217 215 212 216 225 269 281 262 143 191 204 277 261 204 180 260 287 289 277 280 289 296 298 296 298 299 302 306 296 304 286 309 295 295 293 293 289 291 291 290 288 292 287
215 213 211 212 215 209 210 215 212 234 233 288 7 94 292 261 232 214 221 232 258 317 303 274 289 295 293 298 309 303 293 285 274 280 280 282 278 283 279 295 298 283 282 274 263 272 280
216 217 212 207 207 206 205 207 211 228 236 311 249 298 136 258 231 226 239 252 267 275 284 295 301 283 291 333 313 294 278 268 261 258 247 257 263 275 285 294 275 281 274 290 288 298 307
213 216 214 210 208 209 212 212 204 219 236 263 294 249 116 241 254 271 259 260 274 280 262 264 282 337 353 314 308 320 297 270 262 236 232 216 237 248 247 259 277 285 283 280 310 305 358
213 217 216 213 208 204 201 205 196 210 219 252 254 284 204 239 224 244 281 284 285 285 300 307 61 303 288 291 297 264 297 324 298 330 310 230 210 245 240 259 275 307 306 352 316 272 17
212 215 218 213 209 205 202 201 200 203 210 234 252 231 239 228 265 248 242 260 308 299 283 312 313 273 217 243 259 264 269 285 279 283 303 320 299 232 256 254 253 346 356 333 281 336 320
210 213 217 213 210 205 204 205 202 199 204 215 229 222 223 247 281 281 271 267 264 249 256 279 328 196 213 238 260 264 276 307 289 294 308 309 304 299 291 278 255 24 359 354 315 301 315
209 211 212 209 207 204 205 204 204 202 199 201 236 174 218 246 271 324 296 290 278 269 272 234 241 299 182 252 290 323 309 309 293 286 294 278 281 289 270 296 314 320 174 242 266 309 312